Taunton, MA

12:25 AM EDT on September 26, 2017 (GMT -0400)
Taunton Municipal

Weather History for KTAN - February, 2014

Change the Weather History Date:

Monday, February 17, 2014

  Actual Average Record
Temperature  
Mean Temperature 18 °F -  
Max Temperature 30 °F 38 °F 60 °F (1981)
Min Temperature 3 °F 18 °F -3 °F (1979)
Degree Days  
Heating Degree Days 48    
Moisture  
Dew Point -2 °F    
Average Humidity 41    
Maximum Humidity 84    
Minimum Humidity 20    
Precipitation  
Precipitation 0.00 in - - ()
Sea Level Pressure  
Sea Level Pressure 30.21 in    
Wind  
Wind Speed 8 mph (NW)    
Max Wind Speed 15 mph    
Max Gust Speed 24 mph    
Visibility 10 miles    
Events      
Averages and records for this station are not official NWS values.
T = Trace of Precipitation, MM = Missing Value Source: NWS Daily Summary

Daily Weather History Graph

Daily Weather History Graph

Search for Another Location

Airport or City:

Trip Planner

Search our weather history database for the weather conditions in past years. The results will help you decide how hot, cold, wet, or windy it might be!

Date:

Astronomy

Feb. 17, 2014 Rise Set
Actual Time 6:37 AM EST 5:19 PM EST
Civil Twilight 6:08 AM EST 5:48 PM EST
Nautical Twilight 5:36 AM EST 6:20 PM EST
Astronomical Twilight 5:03 AM EST 6:53 PM EST
Moon 8:14 PM EST (2/17) 7:33 AM EST (2/17)
Length of Visible Light 11h 39m
Length of Day
10h 42m
Waning Gibbous, 93% of the Moon is Illuminated
Feb 17
Waning Gibbous
Feb 22
Last Quarter
Mar 1
New
Mar 8
First Quarter
Mar 16
Full

Hourly Weather History & Observations

Time (EST) Temp. Windchill Dew Point Humidity Pressure Visibility Wind Dir Wind Speed Gust Speed Precip Events Conditions
12:52 AM 23.0 °F 13.1 °F 7.0 °F 50% 29.98 in 10.0 mi NW 9.2 mph - N/A   Mostly Cloudy
1:52 AM 21.9 °F 11.7 °F 5.0 °F 48% 30.00 in 10.0 mi WNW 9.2 mph - N/A   Overcast
2:52 AM 19.9 °F 11.1 °F 3.0 °F 48% 30.03 in 10.0 mi NW 6.9 mph - N/A   Clear
3:52 AM 18.0 °F 9.8 °F 3.0 °F 52% 30.06 in 10.0 mi WNW 5.8 mph - N/A   Clear
4:52 AM 18.0 °F 4.2 °F -4.0 °F 38% 30.07 in 10.0 mi NW 13.8 mph 18.4 mph N/A   Clear
5:52 AM 17.1 °F 5.8 °F -4.0 °F 39% 30.11 in 10.0 mi NW 9.2 mph 17.3 mph N/A   Clear
6:52 AM 16.0 °F 5.3 °F -4.0 °F 41% 30.14 in 10.0 mi WNW 8.1 mph - N/A   Clear
7:52 AM 17.1 °F 5.8 °F -4.0 °F 39% 30.18 in 10.0 mi NW 9.2 mph - N/A   Clear
8:52 AM 19.0 °F 11.1 °F -4.0 °F 36% 30.21 in 10.0 mi NW 5.8 mph 17.3 mph N/A   Clear
9:52 AM 21.9 °F 8.7 °F -6.0 °F 29% 30.22 in 10.0 mi NNW 15.0 mph 20.7 mph N/A   Clear
10:52 AM 25.0 °F 15.5 °F -5.1 °F 27% 30.23 in 10.0 mi NW 9.2 mph - N/A   Clear
11:52 AM 27.0 °F 16.1 °F -5.1 °F 25% 30.24 in 10.0 mi WNW 12.7 mph 24.2 mph N/A   Clear
12:52 PM 28.9 °F 19.2 °F -5.1 °F 23% 30.23 in 10.0 mi NW 11.5 mph 24.2 mph N/A   Clear
1:52 PM 30.0 °F 20.0 °F -2.9 °F 24% 30.23 in 10.0 mi WNW 12.7 mph 21.9 mph N/A   Clear
2:52 PM 30.9 °F 21.2 °F -4.0 °F 22% 30.26 in 10.0 mi NW 12.7 mph 24.2 mph N/A   Clear
3:52 PM 30.9 °F 21.2 °F -6.0 °F 20% 30.27 in 10.0 mi NW 12.7 mph 18.4 mph N/A   Clear
4:52 PM 30.0 °F 22.4 °F -6.0 °F 21% 30.30 in 10.0 mi NW 8.1 mph 17.3 mph N/A   Clear
5:52 PM 27.0 °F 18.7 °F -5.1 °F 25% 30.31 in 10.0 mi NW 8.1 mph - N/A   Clear
6:52 PM 24.1 °F 19.7 °F -5.1 °F 28% 30.33 in 10.0 mi North 3.5 mph - N/A   Clear
7:52 PM 15.1 °F - 1.9 °F 56% 30.35 in 10.0 mi Calm Calm - N/A   Clear
8:52 PM 10.0 °F - -0.0 °F 64% 30.35 in 10.0 mi Calm Calm - N/A   Clear
9:52 PM 9.0 °F - 1.0 °F 70% 30.33 in 10.0 mi Calm Calm - N/A   Clear
10:52 PM 5.0 °F - 1.0 °F 84% 30.33 in 10.0 mi Calm Calm - N/A   Clear
11:52 PM 3.0 °F - -0.9 °F 84% 30.36 in 10.0 mi Calm Calm - N/A   Clear